[[[{"header":{"parameterUnit":"kt","parameterCategory":2,"dx":1,"dy":1,"la1":30.253999710083008,"la2":30.299108505249023,"lo1":-89.0895004272461,"lo2":-89.04439544677734,"nx":28,"ny":28,"refTime":"2022-10-02T21:00:00:Z","depth":0,"parameterNumber":1,"parameterNumberName":"U-component_of_WINDS"},"data":[-0.5395,-0.544,-0.5448,-0.5502,-0.5518,-0.5556,-0.5573,-0.5594,-0.5613,-0.5659,-0.5686,-0.5698,-0.572,-0.5754,-0.5784,-0.5789,-0.5802,-0.5811,-0.5816,-0.5767,-0.576,-0.5755,-0.5746,-0.5813,-0.5813,-0.5868,-0.5868,-0.5868,-0.5357,-0.5373,-0.5404,-0.544,-0.5466,-0.5462,-0.5489,-0.5512,-0.5546,-0.5569,-0.5597,-0.5638,-0.5671,-0.569,-0.5723,-0.5743,-0.5744,-0.5752,-0.5753,-0.5757,-0.5703,-0.5694,-0.5751,-0.5751,-0.5751,-0.5751,-0.5751,-0.5751,-0.5289,-0.5315,-0.5342,-0.5376,-0.5396,-0.5419,-0.5445,-0.546,-0.549,-0.5527,-0.553,-0.5569,-0.5594,-0.5638,-0.5654,-0.5685,-0.5678,-0.5689,-0.5693,-0.5697,-0.57,-0.5625,-0.569,-0.569,-0.569,-0.569,-0.5689,0,-0.5243,-0.5249,-0.5279,-0.5312,-0.5337,-0.5363,-0.5389,-0.5405,-0.5419,-0.5443,-0.5479,-0.5501,-0.5544,-0.5578,-0.5611,-0.5627,-0.5627,-0.5627,-0.5635,-0.5637,-0.5633,-0.5639,-0.5554,-0.5626,-0.5625,-0.5625,-0.5625,-0.5625,-0.5179,-0.5208,-0.524,-0.526,-0.5277,-0.5309,-0.533,-0.534,-0.5362,-0.5395,-0.5417,-0.5451,-0.548,-0.5535,-0.5553,-0.5585,-0.5587,-0.5613,-0.5592,-0.559,-0.5591,-0.5591,-0.5594,-0.5619,-0.562,-0.562,-0.5621,0,-0.5142,-0.5156,-0.5204,-0.5234,-0.5242,-0.5272,-0.5297,-0.5323,-0.5335,-0.5372,-0.5382,-0.5401,-0.5436,-0.545,-0.5492,-0.5498,-0.5548,-0.5546,-0.5539,-0.5541,-0.5568,-0.5567,-0.5651,-0.5663,-0.559,-0.5591,-0.5591,0,-0.5094,-0.5132,-0.5152,-0.5179,-0.522,-0.5231,-0.5272,-0.5287,-0.531,-0.534,-0.5341,-0.5369,-0.5383,-0.5412,-0.5422,-0.5463,-0.5471,-0.5479,-0.5482,-0.5482,-0.5481,-0.5497,-0.5495,-0.5484,-0.5483,-0.5483,-0.5482,0,-0.5038,-0.5092,-0.5136,-0.5151,-0.5187,-0.5207,-0.5223,-0.5249,-0.527,-0.5298,-0.5312,-0.5344,-0.5362,-0.5387,-0.5399,-0.5384,-0.545,-0.5432,-0.5459,-0.5459,-0.5477,-0.5476,-0.5543,-0.5482,-0.5482,-0.5482,-0.5481,0,-0.5004,-0.5034,-0.5094,-0.5125,-0.5139,-0.5167,-0.52,-0.5228,-0.5255,-0.5263,-0.5286,-0.529,-0.5327,-0.5308,-0.5359,-0.5337,-0.5354,-0.5365,-0.5367,-0.5375,-0.5355,-0.5395,-0.5455,-0.5463,-0.5377,-0.5376,-0.5375,0,-0.4937,-0.5002,-0.5013,-0.507,-0.5103,-0.5105,-0.5135,-0.516,-0.5174,-0.5203,-0.5218,-0.5251,-0.524,-0.5253,-0.5276,-0.5293,-0.5322,-0.5289,-0.5333,-0.5335,-0.5329,-0.5383,-0.5391,-0.5439,-0.5364,-0.5365,-0.5366,0,-0.4888,-0.4933,-0.4943,-0.4961,-0.4997,-0.5024,-0.5059,-0.5095,-0.5114,-0.5141,-0.5172,-0.5218,-0.5212,-0.5233,-0.5241,-0.5264,-0.5303,-0.5255,-0.5256,-0.5266,-0.5359,-0.5366,-0.5374,-0.5302,-0.5304,-0.5305,-0.5357,0,-0.4838,-0.4872,-0.4898,-0.4938,-0.4961,-0.4998,-0.5015,-0.5037,-0.5042,-0.5057,-0.5101,-0.5126,-0.5163,-0.5175,-0.5181,-0.5229,-0.5224,-0.5218,-0.5204,-0.5238,-0.5256,-0.5263,-0.5176,-0.5176,-0.5175,-0.5175,0,0,-0.4772,-0.4822,-0.4835,-0.4871,-0.4892,-0.4895,-0.4932,-0.4952,-0.4994,-0.5008,-0.5,-0.5069,-0.509,-0.5143,-0.5155,-0.5168,-0.5179,-0.5167,-0.5221,-0.5226,-0.5231,-0.525,-0.5257,-0.5175,-0.5175,-0.5175,-0.5174,0,-0.4758,-0.478,-0.4817,-0.4838,-0.4871,-0.4886,-0.4894,-0.4928,-0.494,-0.4983,-0.4987,-0.5015,-0.507,-0.5093,-0.5112,-0.516,-0.5162,-0.5169,-0.5191,-0.5218,-0.5223,-0.5228,-0.5247,-0.5254,-0.5174,-0.5174,-0.5174,0,-0.4716,-0.4741,-0.476,-0.4808,-0.483,-0.4863,-0.4852,-0.4888,-0.4913,-0.4916,-0.496,-0.4976,-0.5008,-0.5054,-0.5076,-0.507,-0.5146,-0.5124,-0.5127,-0.5131,-0.5158,-0.5164,-0.517,-0.5095,-0.5094,-0.5094,0,0,-0.4702,-0.4734,-0.4766,-0.4807,-0.482,-0.4842,-0.4862,-0.487,-0.4899,-0.491,-0.4933,-0.496,-0.4992,-0.5013,-0.5045,-0.5093,-0.5102,-0.5114,-0.5118,-0.5121,-0.5126,-0.5154,-0.516,-0.5093,-0.5093,-0.5093,0,0,-0.4696,-0.4734,-0.4736,-0.4785,-0.4812,-0.4846,-0.487,-0.4872,-0.4903,-0.4901,-0.4917,-0.4925,-0.4969,-0.4986,-0.4966,-0.5041,-0.5026,-0.5031,-0.5029,-0.5034,-0.5038,-0.5035,-0.496,0,0,0,0,0,-0.4693,-0.4729,-0.473,-0.4741,-0.4802,-0.4845,-0.4853,-0.4868,-0.4857,-0.4876,-0.4895,-0.4895,-0.4978,-0.4961,-0.4972,-0.4995,-0.5076,-0.5079,-0.5082,-0.5091,-0.5096,-0.51,0,0,0,0,0,0,-0.4697,-0.4711,-0.4729,-0.4765,-0.4779,-0.4844,-0.483,-0.4835,-0.4856,-0.4855,-0.4891,-0.4896,-0.4909,-0.4957,-0.4966,-0.4988,-0.4957,-0.5077,-0.508,-0.5082,-0.5092,-0.5096,-0.51,0,0,0,0,0,-0.4701,-0.4712,-0.4806,-0.4764,-0.4776,-0.4804,-0.4829,-0.4833,-0.4849,-0.4879,-0.4884,-0.4858,-0.491,-0.4918,-0.4963,-0.4983,-0.4951,-0.4954,-0.5079,-0.5081,-0.5083,-0.5094,0,0,0,0,0,0,-0.4704,-0.4716,-0.4808,-0.4813,-0.4752,-0.4801,-0.4809,-0.4831,-0.4872,-0.4877,-0.4847,-0.4846,-0.491,-0.4917,-0.4924,-0.4981,-0.4946,-0.4949,-0.4951,-0.5081,-0.5082,-0.5083,0,0,0,0,0,0,-0.471,-0.4719,-0.4811,-0.4795,-0.4797,-0.4798,-0.4805,-0.4844,-0.4873,-0.4837,-0.4838,-0.4846,-0.49,-0.4916,-0.4921,-0.4982,-0.4942,-0.4945,-0.4947,-0.4949,-0.5082,-0.5083,0,0,0,0,0,0,-0.4714,-0.4722,-0.4794,-0.4795,-0.4797,-0.4845,-0.4833,-0.4894,-0.4859,-0.4836,-0.4856,-0.4855,-0.4899,-0.4905,-0.492,-0.4978,-0.4981,-0.4942,-0.4944,-0.4946,-0.4947,0,0,0,0,0,0,0,-0.4717,-0.4661,-0.4784,-0.4796,-0.4798,-0.4851,-0.4852,-0.4853,-0.4859,-0.4857,-0.4856,-0.4855,-0.4923,-0.4926,-0.493,-0.4975,0,0,-0.4941,-0.4943,0,0,0,0,0,0,0,0,-0.4658,-0.466,-0.4784,-0.4785,-0.4786,-0.4851,-0.4852,-0.4853,-0.4858,-0.4857,-0.4857,-0.4856,-0.4924,-0.4927,-0.493,0,0,0,0,0,0,0,0,0,0,0,0,0,0,0,-0.4784,-0.4785,0,-0.4851,-0.4852,-0.4853,-0.4858,-0.4857,-0.4857,-0.4856,-0.4924,-0.4927,-0.4929,0,0,0,0,0,0,0,0,0,0,0,0,0,0,0,0,0,0,0,0,0,0,0,0,0,0,0,0,0,0,0,0,0,0,0,0,0,0,0,0,0,0,0,0,0,0,0,0,0,0,0,0,0,0,0,0,0,0,0,0,0,0,0,0,0,0,0,0,0]}],[{"header":{"parameterUnit":"kt","parameterCategory":2,"dx":1,"dy":1,"la1":30.253999710083008,"la2":30.299108505249023,"lo1":-89.0895004272461,"lo2":-89.04439544677734,"nx":28,"ny":28,"refTime":"2022-10-02T21:00:00:Z","depth":0,"parameterNumber":2,"parameterNumberName":"V-component_of_WINDS"},"data":[-6.1994,-6.2003,-6.2005,-6.2014,-6.2017,-6.2023,-6.2025,-6.2028,-6.2029,-6.2034,-6.2037,-6.2035,-6.2034,-6.2035,-6.2035,-6.2034,-6.2035,-6.204,-6.2038,-6.2017,-6.2014,-6.2011,-6.2011,-6.204,-6.204,-6.206,-6.206,-6.206,-6.1988,-6.1992,-6.1996,-6.2001,-6.2005,-6.2002,-6.2004,-6.2007,-6.2011,-6.2011,-6.2012,-6.2015,-6.2016,-6.2011,-6.201,-6.2013,-6.2009,-6.2013,-6.2013,-6.2013,-6.199,-6.199,-6.2016,-6.2016,-6.2016,-6.2016,-6.2016,-6.2016,-6.1977,-6.1981,-6.1985,-6.1989,-6.199,-6.1993,-6.1996,-6.1994,-6.1996,-6.1997,-6.1993,-6.1995,-6.1993,-6.1988,-6.1985,-6.1986,-6.198,-6.1982,-6.1983,-6.1984,-6.1988,-6.1966,-6.1984,-6.1984,-6.1984,-6.1984,-6.1984,0,-6.1969,-6.197,-6.1972,-6.1976,-6.1978,-6.1979,-6.198,-6.1981,-6.1975,-6.1976,-6.1977,-6.1976,-6.1974,-6.1973,-6.1969,-6.1964,-6.1956,-6.1953,-6.1955,-6.1959,-6.1966,-6.1966,-6.1932,-6.1952,-6.1952,-6.1952,-6.1951,-6.1951,-6.196,-6.1963,-6.1963,-6.1965,-6.1965,-6.1966,-6.1967,-6.1961,-6.1961,-6.1958,-6.196,-6.1958,-6.1956,-6.1953,-6.1945,-6.1941,-6.1937,-6.1946,-6.1936,-6.1942,-6.194,-6.1941,-6.1943,-6.1948,-6.1948,-6.1949,-6.1949,0,-6.1956,-6.1954,-6.1956,-6.1954,-6.1954,-6.1956,-6.1953,-6.1954,-6.1949,-6.195,-6.1949,-6.1941,-6.1939,-6.1929,-6.1922,-6.1916,-6.192,-6.1915,-6.1924,-6.1923,-6.1932,-6.1933,-6.1957,-6.1961,-6.1928,-6.1928,-6.1928,0,-6.1947,-6.1949,-6.1946,-6.1947,-6.195,-6.1943,-6.1945,-6.1941,-6.1937,-6.1937,-6.1927,-6.1927,-6.1913,-6.1911,-6.1902,-6.1903,-6.19,-6.1896,-6.1894,-6.1898,-6.1899,-6.1896,-6.1896,-6.1885,-6.1885,-6.1885,-6.1885,0,-6.1942,-6.1939,-6.1941,-6.194,-6.1934,-6.1935,-6.1932,-6.1926,-6.1924,-6.1919,-6.1918,-6.1912,-6.1908,-6.1903,-6.1893,-6.1887,-6.1892,-6.1881,-6.1888,-6.1889,-6.1889,-6.1889,-6.1914,-6.1885,-6.1885,-6.1885,-6.1885,0,-6.1934,-6.1932,-6.1934,-6.193,-6.1929,-6.1928,-6.1924,-6.192,-6.1914,-6.1909,-6.1904,-6.1895,-6.1892,-6.1883,-6.188,-6.1876,-6.1873,-6.1868,-6.1868,-6.1868,-6.1858,-6.1876,-6.1899,-6.1902,-6.1868,-6.1868,-6.1868,0,-6.193,-6.1929,-6.1924,-6.1923,-6.1922,-6.1913,-6.1911,-6.1905,-6.1899,-6.1895,-6.1886,-6.1879,-6.187,-6.1866,-6.1866,-6.1855,-6.186,-6.1854,-6.1847,-6.1847,-6.1854,-6.1874,-6.1881,-6.1895,-6.1866,-6.1866,-6.1866,0,-6.1926,-6.1919,-6.1919,-6.1918,-6.1908,-6.1904,-6.1902,-6.1895,-6.1893,-6.1884,-6.1882,-6.1869,-6.1864,-6.1855,-6.1845,-6.1845,-6.1857,-6.1837,-6.1836,-6.1843,-6.1862,-6.187,-6.1873,-6.185,-6.185,-6.185,-6.1865,0,-6.1921,-6.1918,-6.1917,-6.1909,-6.1904,-6.1901,-6.1891,-6.1887,-6.188,-6.1872,-6.1866,-6.1852,-6.184,-6.1837,-6.1827,-6.1829,-6.1827,-6.1818,-6.1808,-6.1821,-6.1825,-6.1827,-6.1803,-6.1803,-6.1802,-6.1802,0,0,-6.1919,-6.1914,-6.1904,-6.1901,-6.1897,-6.1885,-6.1883,-6.1876,-6.186,-6.1857,-6.1852,-6.1833,-6.182,-6.1813,-6.1816,-6.1809,-6.1808,-6.1802,-6.1814,-6.1816,-6.1817,-6.1822,-6.1824,-6.1801,-6.1801,-6.1801,-6.1801,0,-6.1915,-6.1908,-6.1906,-6.1899,-6.1889,-6.1881,-6.188,-6.1866,-6.186,-6.1852,-6.1839,-6.1832,-6.1813,-6.1804,-6.1796,-6.1804,-6.1793,-6.18,-6.1811,-6.1811,-6.1813,-6.1815,-6.182,-6.1822,-6.18,-6.18,-6.18,0,-6.1911,-6.1903,-6.19,-6.1888,-6.1879,-6.1874,-6.1863,-6.1856,-6.1852,-6.1833,-6.1825,-6.1814,-6.1798,-6.1791,-6.1786,-6.178,-6.1781,-6.1775,-6.1777,-6.1776,-6.1775,-6.1777,-6.1779,-6.1753,-6.1753,-6.1753,0,0,-6.1909,-6.1904,-6.189,-6.1885,-6.1882,-6.1867,-6.1862,-6.1853,-6.1841,-6.1836,-6.1821,-6.1808,-6.1797,-6.179,-6.1778,-6.1771,-6.1767,-6.177,-6.1772,-6.1774,-6.1774,-6.1774,-6.1776,-6.1753,-6.1753,-6.1753,0,0,-6.1906,-6.1891,-6.1886,-6.188,-6.1871,-6.1853,-6.185,-6.1843,-6.1831,-6.183,-6.181,-6.1806,-6.1798,-6.1786,-6.1784,-6.1774,-6.1764,-6.1764,-6.1782,-6.1785,-6.1787,-6.179,-6.1767,0,0,0,0,0,-6.1896,-6.1894,-6.189,-6.1887,-6.1867,-6.1857,-6.1854,-6.184,-6.1836,-6.1834,-6.1821,-6.1809,-6.1782,-6.1781,-6.1776,-6.1778,-6.1749,-6.1749,-6.175,-6.1771,-6.1774,-6.1777,0,0,0,0,0,0,-6.1895,-6.1891,-6.189,-6.1873,-6.1869,-6.1856,-6.1846,-6.1842,-6.1836,-6.1834,-6.1812,-6.1808,-6.1794,-6.1782,-6.1778,-6.178,-6.1768,-6.1749,-6.175,-6.175,-6.1772,-6.1775,-6.1777,0,0,0,0,0,-6.1894,-6.1891,-6.1863,-6.1873,-6.1869,-6.1851,-6.1846,-6.1843,-6.1837,-6.1815,-6.1811,-6.1827,-6.1794,-6.179,-6.1779,-6.1782,-6.1771,-6.1769,-6.1749,-6.175,-6.175,-6.1774,0,0,0,0,0,0,-6.1893,-6.1886,-6.1862,-6.186,-6.1872,-6.1851,-6.1848,-6.1843,-6.1818,-6.1814,-6.183,-6.1829,-6.1794,-6.1791,-6.1788,-6.1784,-6.1773,-6.1771,-6.177,-6.175,-6.175,-6.175,0,0,0,0,0,0,-6.1888,-6.1885,-6.1861,-6.1861,-6.1859,-6.1852,-6.1849,-6.1835,-6.1818,-6.1834,-6.1832,-6.183,-6.1798,-6.1792,-6.1789,-6.1769,-6.1774,-6.1773,-6.1772,-6.1771,-6.175,-6.175,0,0,0,0,0,0,-6.1886,-6.1884,-6.1861,-6.186,-6.1858,-6.1836,-6.184,-6.1819,-6.1822,-6.1835,-6.1821,-6.1821,-6.1799,-6.1796,-6.179,-6.1771,-6.177,-6.1774,-6.1773,-6.1773,-6.1772,0,0,0,0,0,0,0,-6.1885,-6.1905,-6.1873,-6.1859,-6.1857,-6.1843,-6.1843,-6.1842,-6.1822,-6.1822,-6.1822,-6.1821,-6.1782,-6.178,-6.1779,-6.1773,0,0,-6.1774,-6.1774,0,0,0,0,0,0,0,0,-6.1906,-6.1906,-6.1873,-6.1872,-6.1872,-6.1843,-6.1843,-6.1842,-6.1822,-6.1822,-6.1822,-6.1821,-6.1781,-6.178,-6.1779,0,0,0,0,0,0,0,0,0,0,0,0,0,0,0,-6.1873,-6.1872,0,-6.1843,-6.1843,-6.1842,-6.1822,-6.1822,-6.1822,-6.1821,-6.1781,-6.178,-6.1779,0,0,0,0,0,0,0,0,0,0,0,0,0,0,0,0,0,0,0,0,0,0,0,0,0,0,0,0,0,0,0,0,0,0,0,0,0,0,0,0,0,0,0,0,0,0,0,0,0,0,0,0,0,0,0,0,0,0,0,0,0,0,0,0,0,0,0,0,0]}]]]